Tracking 25405 objects as of 27-Jan-2022
HD Live streaming from Space Station
objects crossing your sky now

STARLINK-2484

Track STARLINK-2484 now!
10-day predictions
STARLINK-2484 is classified as:


NORAD ID: 48141
Int'l Code: 2021-027BB
Perigee: 553.3 km
Apogee: 555.3 km
Inclination: 53.1 °
Period: 95.6 minutes
Semi major axis: 6925 km
RCS: Unknown
Launch date: April 7, 2021
Source: United States (US)
Launch site: AIR FORCE EASTERN TEST RANGE (AFETR)
aabbcc
Your satellite tracking list
Your tracking list is empty




NASA's NSSDC Master Catalog

Two Line Element Set (TLE):
1 48141U 21027BB  22026.54157711 -.00000021  00000-0  17512-4 0  9997
2 48141  53.0552  79.5225 0001429  87.4077 272.7075 15.06406273 45877
Source of the keplerian elements: AFSPC